DAL1492 KSLC-KSTL

Flight info

Callsign DAL1492
Flight time 2h 14m
Altitude 35000
Route RUGGD3 PERTY CHE GLL MCK TOP ANX KAYLA3
Aircraft B738/M-SDE2E3FGHIRWXY/LB1

Departure

Time 2026-05-07 23:11
Airport Salt Lake City International Airport (KSLC)

Arrival

Time 2026-05-08 01:26
Airport St. Louis Lambert International Airport (KSTL)
Time Latitude Longitude Altitude Speed Heading
2026-05-07 22:47 40.78650 -111.98315 4234 ft 0 kts 175°
2026-05-07 22:59 40.78663 -111.98317 4233 ft 3 kts 175°
2026-05-07 22:59 40.78682 -111.98320 4232 ft 2 kts 174°
2026-05-07 22:59 40.78698 -111.98321 4234 ft 3 kts 191°
2026-05-07 23:00 40.78713 -111.98313 4234 ft 3 kts 240°
2026-05-07 23:00 40.78719 -111.98289 4234 ft 2 kts 264°
2026-05-07 23:00 40.78720 -111.98277 4234 ft 1 kts 265°
2026-05-07 23:00 40.78720 -111.98276 4234 ft 0 kts 265°
2026-05-07 23:03 40.78720 -111.98277 4234 ft 1 kts 265°
2026-05-07 23:03 40.78719 -111.98292 4234 ft 5 kts 265°
2026-05-07 23:03 40.78714 -111.98383 4234 ft 9 kts 266°
2026-05-07 23:04 40.78710 -111.98437 4234 ft 9 kts 264°
2026-05-07 23:04 40.78703 -111.98542 4234 ft 16 kts 268°
2026-05-07 23:04 40.78691 -111.98714 4234 ft 19 kts 265°
2026-05-07 23:04 40.78676 -111.98942 4234 ft 18 kts 265°
2026-05-07 23:05 40.78668 -111.99056 4234 ft 18 kts 265°
2026-05-07 23:05 40.78658 -111.99217 4234 ft 17 kts 264°
2026-05-07 23:05 40.78647 -111.99374 4234 ft 17 kts 264°
2026-05-07 23:05 40.78576 -111.99456 4234 ft 16 kts 176°
2026-05-07 23:06 40.78466 -111.99443 4234 ft 16 kts 175°
2026-05-07 23:06 40.78353 -111.99430 4234 ft 18 kts 175°
2026-05-07 23:06 40.78233 -111.99416 4233 ft 17 kts 175°
2026-05-07 23:06 40.78113 -111.99407 4234 ft 18 kts 186°
2026-05-07 23:07 40.77987 -111.99439 4260 ft 18 kts 185°
2026-05-07 23:07 40.77864 -111.99427 4260 ft 18 kts 174°
2026-05-07 23:07 40.77743 -111.99413 4261 ft 17 kts 175°
2026-05-07 23:07 40.77627 -111.99400 4261 ft 16 kts 175°
2026-05-07 23:08 40.77552 -111.99392 4261 ft 8 kts 186°
2026-05-07 23:08 40.77533 -111.99406 4261 ft 0 kts 231°
2026-05-07 23:09 40.77529 -111.99418 4261 ft 5 kts 244°
2026-05-07 23:09 40.77520 -111.99498 4262 ft 11 kts 265°
2026-05-07 23:09 40.77525 -111.99545 4262 ft 2 kts 321°
2026-05-07 23:09 40.77551 -111.99554 4263 ft 2 kts 355°
2026-05-07 23:10 40.77554 -111.99555 4263 ft 0 kts 355°
2026-05-07 23:10 40.77725 -111.99575 4261 ft 58 kts 355°
2026-05-07 23:11 40.78348 -111.99647 4232 ft 120 kts 355°
2026-05-07 23:11 40.79363 -111.99763 4234 ft 171 kts 353°
2026-05-07 23:11 40.80655 -111.99911 4573 ft 193 kts 355°
2026-05-07 23:11 40.82022 -112.00027 5288 ft 200 kts 356°
2026-05-07 23:12 40.83497 -112.00116 5524 ft 225 kts 355°
2026-05-07 23:12 40.85131 -112.00238 5808 ft 243 kts 355°
2026-05-07 23:12 40.86880 -112.00370 6102 ft 262 kts 355°
2026-05-07 23:12 40.88750 -112.00508 6418 ft 279 kts 354°
2026-05-07 23:13 40.90705 -112.00648 7125 ft 282 kts 354°
2026-05-07 23:13 40.92659 -112.00786 7944 ft 280 kts 353°
2026-05-07 23:13 40.94612 -112.00925 8719 ft 282 kts 353°
2026-05-07 23:13 40.96582 -112.01065 9520 ft 283 kts 353°
2026-05-07 23:14 40.98565 -112.01207 10232 ft 287 kts 353°
2026-05-07 23:14 41.00605 -112.01357 10496 ft 308 kts 353°
2026-05-07 23:14 41.02834 -112.01265 10674 ft 335 kts 10°
2026-05-07 23:14 41.04969 -111.99871 11138 ft 354 kts 37°
2026-05-07 23:15 41.06504 -111.97267 11798 ft 365 kts 60°
2026-05-07 23:15 41.07562 -111.94239 12504 ft 368 kts 63°
2026-05-07 23:15 41.08599 -111.91101 13116 ft 373 kts 63°
2026-05-07 23:15 41.09670 -111.87924 13787 ft 378 kts 62°
2026-05-07 23:16 41.10772 -111.84736 14422 ft 381 kts 60°
2026-05-07 23:16 41.11865 -111.81526 14983 ft 385 kts 65°
2026-05-07 23:16 41.12338 -111.78014 15505 ft 400 kts 89°
2026-05-07 23:16 41.11772 -111.74386 16164 ft 406 kts 111°
2026-05-07 23:17 41.10315 -111.71162 16790 ft 409 kts 128°
2026-05-07 23:17 41.08508 -111.68223 17318 ft 415 kts 130°
2026-05-07 23:17 41.06630 -111.65267 17792 ft 421 kts 130°
2026-05-07 23:17 41.04731 -111.62278 18234 ft 426 kts 129°
2026-05-07 23:18 41.02831 -111.59249 18773 ft 428 kts 129°
2026-05-07 23:18 41.00959 -111.56233 19320 ft 429 kts 129°
2026-05-07 23:18 40.99065 -111.53162 19850 ft 431 kts 128°
2026-05-07 23:18 40.97160 -111.50066 20321 ft 435 kts 128°
2026-05-07 23:19 40.95234 -111.46940 20797 ft 439 kts 129°
2026-05-07 23:19 40.93314 -111.43781 21266 ft 441 kts 125°
2026-05-07 23:19 40.91726 -111.40300 21715 ft 443 kts 113°
2026-05-07 23:19 40.90608 -111.36559 22202 ft 442 kts 104°
2026-05-07 23:20 40.89941 -111.32593 22685 ft 441 kts 96°
2026-05-07 23:20 40.89474 -111.28567 23166 ft 443 kts 95°
2026-05-07 23:20 40.89032 -111.24517 23649 ft 446 kts 94°
2026-05-07 23:20 40.88586 -111.20443 23997 ft 449 kts 94°
2026-05-07 23:21 40.88126 -111.16337 24348 ft 453 kts 95°
2026-05-07 23:21 40.87656 -111.12256 24748 ft 456 kts 95°
2026-05-07 23:21 40.87164 -111.08073 25059 ft 460 kts 95°
2026-05-07 23:21 40.86663 -111.03872 25401 ft 463 kts 95°
2026-05-07 23:22 40.86155 -110.99660 25787 ft 465 kts 95°
2026-05-07 23:22 40.85649 -110.95480 26139 ft 468 kts 95°
2026-05-07 23:22 40.85130 -110.91207 26462 ft 471 kts 95°
2026-05-07 23:22 40.84608 -110.86921 26789 ft 474 kts 95°
2026-05-07 23:23 40.84082 -110.82612 27095 ft 476 kts 95°
2026-05-07 23:23 40.83551 -110.78279 27420 ft 479 kts 95°
2026-05-07 23:23 40.83022 -110.73960 27680 ft 482 kts 95°
2026-05-07 23:23 40.82482 -110.69577 27975 ft 485 kts 95°
2026-05-07 23:24 40.81937 -110.65168 28288 ft 487 kts 95°
2026-05-07 23:24 40.81389 -110.60752 28616 ft 489 kts 95°
2026-05-07 23:24 40.80835 -110.56301 28884 ft 492 kts 95°
2026-05-07 23:24 40.80277 -110.51822 29164 ft 495 kts 95°
2026-05-07 23:25 40.79721 -110.47379 29431 ft 497 kts 95°
2026-05-07 23:25 40.79153 -110.42861 29714 ft 500 kts 95°
2026-05-07 23:25 40.78580 -110.38310 30004 ft 502 kts 95°
2026-05-07 23:25 40.78004 -110.33751 30181 ft 504 kts 95°
2026-05-07 23:26 40.77423 -110.29174 30440 ft 504 kts 95°
2026-05-07 23:26 40.76846 -110.24644 30749 ft 504 kts 95°
2026-05-07 23:26 40.76262 -110.20077 31034 ft 503 kts 95°
2026-05-07 23:26 40.75679 -110.15523 31321 ft 503 kts 95°
2026-05-07 23:27 40.74515 -110.06454 31782 ft 506 kts 95°
2026-05-07 23:27 40.74011 -110.01865 32013 ft 504 kts 92°
2026-05-07 23:27 40.73645 -109.97265 32322 ft 502 kts 90°
2026-05-07 23:28 40.73339 -109.92677 32603 ft 501 kts 90°
2026-05-07 23:28 40.73052 -109.88098 32868 ft 500 kts 89°
2026-05-07 23:28 40.72767 -109.83582 33130 ft 500 kts 89°
2026-05-07 23:28 40.72466 -109.79005 33422 ft 500 kts 90°
2026-05-07 23:29 40.72154 -109.74425 33610 ft 502 kts 90°
2026-05-07 23:29 40.71829 -109.69827 33794 ft 503 kts 90°
2026-05-07 23:29 40.71498 -109.65234 34018 ft 503 kts 90°
2026-05-07 23:29 40.71160 -109.60623 34253 ft 502 kts 90°
2026-05-07 23:30 40.70826 -109.56105 34478 ft 501 kts 90°
2026-05-07 23:30 40.70487 -109.51548 34757 ft 498 kts 90°
2026-05-07 23:30 40.70148 -109.46995 34976 ft 498 kts 90°
2026-05-07 23:30 40.69808 -109.42430 35023 ft 501 kts 90°
2026-05-07 23:31 40.69120 -109.33242 35010 ft 501 kts 90°
2026-05-07 23:31 40.68431 -109.24181 34986 ft 498 kts 90°
2026-05-07 23:32 40.67733 -109.15098 34985 ft 496 kts 90°
2026-05-07 23:32 40.67035 -109.06094 34986 ft 494 kts 90°
2026-05-07 23:33 40.66331 -108.97083 34965 ft 494 kts 90°
2026-05-07 23:33 40.65622 -108.88112 34977 ft 495 kts 90°
2026-05-07 23:34 40.64900 -108.79049 34940 ft 497 kts 90°
2026-05-07 23:34 40.64170 -108.70003 34941 ft 499 kts 90°
2026-05-07 23:35 40.63427 -108.60892 34947 ft 500 kts 91°
2026-05-07 23:35 40.62676 -108.51765 34935 ft 502 kts 91°
2026-05-07 23:36 40.61920 -108.42668 34952 ft 503 kts 91°
2026-05-07 23:36 40.61149 -108.33474 34943 ft 504 kts 91°
2026-05-07 23:37 40.60371 -108.24294 34937 ft 505 kts 91°
2026-05-07 23:37 40.59590 -108.15168 34944 ft 505 kts 91°
2026-05-07 23:38 40.58795 -108.05961 34938 ft 505 kts 91°
2026-05-07 23:38 40.57997 -107.96810 34954 ft 505 kts 91°
2026-05-07 23:39 40.57190 -107.87636 34955 ft 503 kts 91°
2026-05-07 23:39 40.56377 -107.78480 35014 ft 502 kts 91°
2026-05-07 23:40 40.55563 -107.69387 35064 ft 501 kts 91°
2026-05-07 23:40 40.54740 -107.60275 35057 ft 501 kts 91°
2026-05-07 23:41 40.53915 -107.51222 35076 ft 500 kts 92°
2026-05-07 23:41 40.53082 -107.42165 35070 ft 499 kts 92°
2026-05-07 23:42 40.52242 -107.33094 35086 ft 500 kts 92°
2026-05-07 23:42 40.51845 -107.24027 35090 ft 493 kts 84°
2026-05-07 23:43 40.51957 -107.15083 35093 ft 492 kts 83°
2026-05-07 23:43 40.52092 -107.06058 35066 ft 494 kts 83°
2026-05-07 23:44 40.52160 -106.96992 35066 ft 495 kts 84°
2026-05-07 23:44 40.52186 -106.87934 35029 ft 496 kts 84°
2026-05-07 23:45 40.52198 -106.78928 35068 ft 495 kts 84°
2026-05-07 23:45 40.52206 -106.69836 35082 ft 496 kts 84°
2026-05-07 23:46 40.52210 -106.60801 35062 ft 496 kts 84°
2026-05-07 23:46 40.52207 -106.51727 35055 ft 496 kts 85°
2026-05-07 23:47 40.52197 -106.42681 35038 ft 495 kts 85°
2026-05-07 23:47 40.52179 -106.33636 35071 ft 495 kts 85°
2026-05-07 23:48 40.52155 -106.24558 35057 ft 496 kts 85°
2026-05-07 23:48 40.52124 -106.15519 35054 ft 496 kts 85°
2026-05-07 23:49 40.52085 -106.06441 35055 ft 496 kts 85°
2026-05-07 23:49 40.52040 -105.97387 35063 ft 496 kts 85°
2026-05-07 23:50 40.51987 -105.88310 35045 ft 496 kts 85°
2026-05-07 23:50 40.51927 -105.79291 35048 ft 496 kts 85°
2026-05-07 23:51 40.51860 -105.70204 35019 ft 495 kts 85°
2026-05-07 23:51 40.51786 -105.61188 35039 ft 495 kts 86°
2026-05-07 23:52 40.51718 -105.53595 34992 ft 495 kts 86°
2026-05-07 23:52 40.51632 -105.44573 34930 ft 494 kts 86°
2026-05-07 23:53 40.51539 -105.35539 34933 ft 493 kts 86°
2026-05-07 23:53 40.51439 -105.26565 34981 ft 494 kts 86°
2026-05-07 23:54 40.51331 -105.17520 34978 ft 494 kts 86°
2026-05-07 23:54 40.51218 -105.08529 34979 ft 494 kts 86°
2026-05-07 23:55 40.51096 -104.99482 34913 ft 494 kts 86°
2026-05-07 23:55 40.50967 -104.90472 34963 ft 495 kts 86°
2026-05-07 23:56 40.50831 -104.81416 34955 ft 496 kts 86°
2026-05-07 23:56 40.50688 -104.72335 34962 ft 496 kts 86°
2026-05-07 23:57 40.50538 -104.63277 34964 ft 497 kts 86°
2026-05-07 23:57 40.50367 -104.54184 34964 ft 498 kts 88°
2026-05-07 23:58 40.49906 -104.45124 34954 ft 500 kts 90°
2026-05-07 23:58 40.49302 -104.36009 34948 ft 500 kts 90°
2026-05-07 23:59 40.48711 -104.26948 34919 ft 500 kts 90°
2026-05-07 23:59 40.48141 -104.17836 34902 ft 500 kts 90°
2026-05-08 00:00 40.47577 -104.08716 34854 ft 499 kts 90°
2026-05-08 00:00 40.47011 -103.99687 34902 ft 499 kts 90°
2026-05-08 00:01 40.46433 -103.90589 34920 ft 498 kts 90°
2026-05-08 00:01 40.45847 -103.81497 34943 ft 499 kts 90°
2026-05-08 00:02 40.45259 -103.72482 34948 ft 499 kts 90°
2026-05-08 00:02 40.44656 -103.63355 34923 ft 499 kts 90°
2026-05-08 00:03 40.44053 -103.54335 34908 ft 499 kts 91°
2026-05-08 00:03 40.43436 -103.45226 34919 ft 500 kts 91°
2026-05-08 00:04 40.42816 -103.36157 34923 ft 500 kts 91°
2026-05-08 00:04 40.42184 -103.27031 34923 ft 501 kts 91°
2026-05-08 00:05 40.41550 -103.17980 34917 ft 501 kts 91°
2026-05-08 00:05 40.40903 -103.08849 34884 ft 501 kts 91°
2026-05-08 00:06 40.40254 -102.99779 34871 ft 501 kts 91°
2026-05-08 00:06 40.39594 -102.90679 34868 ft 500 kts 91°
2026-05-08 00:07 40.38932 -102.81642 34866 ft 499 kts 91°
2026-05-08 00:07 40.38260 -102.72566 34887 ft 499 kts 91°
2026-05-08 00:08 40.37583 -102.63509 34881 ft 499 kts 91°
2026-05-08 00:08 40.36898 -102.54441 34872 ft 498 kts 91°
2026-05-08 00:09 40.36210 -102.45439 34875 ft 498 kts 91°
2026-05-08 00:09 40.35511 -102.36386 34885 ft 498 kts 92°
2026-05-08 00:10 40.34808 -102.27371 34877 ft 498 kts 92°
2026-05-08 00:10 40.34095 -102.18325 34877 ft 498 kts 92°
2026-05-08 00:11 40.33374 -102.09272 34877 ft 498 kts 92°
2026-05-08 00:11 40.32652 -102.00279 34885 ft 499 kts 92°
2026-05-08 00:12 40.31917 -101.91228 34877 ft 499 kts 92°
2026-05-08 00:12 40.31175 -101.82174 34890 ft 499 kts 92°
2026-05-08 00:13 40.30430 -101.73180 34874 ft 498 kts 92°
2026-05-08 00:13 40.29675 -101.64141 34899 ft 499 kts 93°
2026-05-08 00:14 40.28913 -101.55103 34896 ft 499 kts 93°
2026-05-08 00:14 40.28147 -101.46105 34877 ft 500 kts 93°
2026-05-08 00:15 40.27368 -101.37046 34883 ft 500 kts 93°
2026-05-08 00:15 40.26582 -101.27977 34899 ft 500 kts 94°
2026-05-08 00:16 40.25790 -101.18931 34888 ft 501 kts 94°
2026-05-08 00:16 40.24992 -101.09901 34880 ft 502 kts 94°
2026-05-08 00:17 40.24182 -101.00817 34878 ft 502 kts 94°
2026-05-08 00:17 40.23363 -100.91707 34884 ft 502 kts 94°
2026-05-08 00:18 40.22542 -100.82655 34879 ft 502 kts 94°
2026-05-08 00:18 40.21709 -100.73559 34878 ft 502 kts 94°
2026-05-08 00:19 40.20875 -100.64512 34875 ft 502 kts 94°
2026-05-08 00:19 40.19837 -100.55525 34901 ft 504 kts 101°
2026-05-08 00:20 40.18160 -100.46600 34887 ft 504 kts 103°
2026-05-08 00:20 40.16385 -100.37762 34873 ft 504 kts 103°
2026-05-08 00:21 40.14647 -100.28876 34864 ft 504 kts 102°
2026-05-08 00:21 40.12946 -100.19978 34908 ft 503 kts 102°
2026-05-08 00:22 40.11263 -100.11142 34872 ft 503 kts 103°
2026-05-08 00:22 40.09560 -100.02245 34861 ft 503 kts 103°
2026-05-08 00:23 40.07866 -99.93448 34868 ft 502 kts 103°
2026-05-08 00:23 40.06150 -99.84588 34873 ft 502 kts 103°
2026-05-08 00:24 40.04430 -99.75738 34871 ft 502 kts 104°
2026-05-08 00:24 40.02710 -99.66936 34869 ft 503 kts 104°
2026-05-08 00:25 40.00970 -99.58065 34867 ft 504 kts 104°
2026-05-08 00:25 39.99233 -99.49246 34863 ft 505 kts 104°
2026-05-08 00:26 39.97471 -99.40345 34860 ft 507 kts 104°
2026-05-08 00:26 39.95710 -99.31484 34866 ft 507 kts 104°
2026-05-08 00:27 39.93931 -99.22575 34862 ft 507 kts 104°
2026-05-08 00:27 39.92152 -99.13699 34860 ft 507 kts 104°
2026-05-08 00:28 39.90361 -99.04802 34868 ft 507 kts 105°
2026-05-08 00:28 39.88575 -98.95973 34854 ft 506 kts 105°
2026-05-08 00:29 39.86772 -98.87097 34840 ft 506 kts 105°
2026-05-08 00:29 39.84976 -98.78290 34850 ft 506 kts 105°
2026-05-08 00:30 39.83160 -98.69423 34869 ft 506 kts 106°
2026-05-08 00:30 39.81346 -98.60605 34849 ft 507 kts 106°
2026-05-08 00:31 39.79514 -98.51736 34853 ft 507 kts 106°
2026-05-08 00:31 39.77676 -98.42874 34853 ft 507 kts 106°
2026-05-08 00:32 39.75832 -98.34023 34870 ft 507 kts 106°
2026-05-08 00:32 39.73988 -98.25204 34858 ft 508 kts 107°
2026-05-08 00:33 39.72127 -98.16347 34856 ft 508 kts 107°
2026-05-08 00:33 39.70257 -98.07479 34857 ft 509 kts 107°
2026-05-08 00:34 39.68390 -97.98665 34858 ft 510 kts 107°
2026-05-08 00:34 39.66496 -97.89761 34853 ft 511 kts 107°
2026-05-08 00:35 39.64592 -97.80847 34860 ft 512 kts 107°
2026-05-08 00:35 39.62691 -97.71980 34865 ft 513 kts 107°
2026-05-08 00:36 39.60767 -97.63044 34858 ft 514 kts 108°
2026-05-08 00:36 39.58836 -97.54109 34867 ft 515 kts 108°
2026-05-08 00:37 39.56907 -97.45224 34851 ft 515 kts 108°
2026-05-08 00:38 39.53979 -97.31804 34846 ft 515 kts 108°
2026-05-08 00:38 39.52021 -97.22875 34854 ft 515 kts 108°
2026-05-08 00:39 39.50052 -97.13935 34862 ft 516 kts 108°
2026-05-08 00:39 39.48408 -97.06496 34859 ft 517 kts 109°
2026-05-08 00:40 39.46099 -96.96088 34858 ft 517 kts 109°
2026-05-08 00:40 39.44438 -96.88634 34860 ft 517 kts 109°
2026-05-08 00:41 39.42446 -96.79724 34857 ft 517 kts 109°
2026-05-08 00:41 39.40439 -96.70783 34869 ft 517 kts 109°
2026-05-08 00:42 39.38422 -96.61836 34838 ft 517 kts 109°
2026-05-08 00:42 39.36405 -96.52921 34861 ft 517 kts 109°
2026-05-08 00:43 39.34386 -96.44035 34868 ft 517 kts 110°
2026-05-08 00:43 39.32357 -96.35140 34871 ft 518 kts 110°
2026-05-08 00:44 39.30311 -96.26204 34876 ft 519 kts 110°
2026-05-08 00:44 39.28253 -96.17252 34877 ft 520 kts 110°
2026-05-08 00:45 39.26187 -96.08296 34900 ft 521 kts 110°
2026-05-08 00:45 39.24110 -95.99333 34889 ft 522 kts 110°
2026-05-08 00:46 39.22021 -95.90347 34893 ft 523 kts 110°
2026-05-08 00:46 39.19930 -95.81390 34847 ft 523 kts 111°
2026-05-08 00:47 39.17825 -95.72408 34892 ft 523 kts 111°
2026-05-08 00:47 39.15706 -95.63397 34905 ft 524 kts 111°
2026-05-08 00:48 39.13774 -95.54362 34885 ft 529 kts 103°
2026-05-08 00:48 39.13294 -95.44859 34899 ft 533 kts 92°
2026-05-08 00:49 39.13168 -95.35342 34906 ft 533 kts 92°
2026-05-08 00:49 39.12988 -95.25772 34902 ft 534 kts 93°
2026-05-08 00:50 39.12747 -95.16214 34912 ft 534 kts 93°
2026-05-08 00:50 39.12482 -95.06629 34906 ft 535 kts 94°
2026-05-08 00:51 39.12213 -94.97101 34912 ft 534 kts 94°
2026-05-08 00:51 39.11939 -94.87521 34908 ft 535 kts 94°
2026-05-08 00:52 39.11660 -94.77996 34915 ft 535 kts 94°
2026-05-08 00:52 39.11371 -94.68384 34920 ft 535 kts 94°
2026-05-08 00:53 39.11075 -94.58834 34910 ft 535 kts 94°
2026-05-08 00:53 39.10771 -94.49300 34904 ft 535 kts 94°
2026-05-08 00:54 39.10459 -94.39710 34952 ft 535 kts 94°
2026-05-08 00:54 39.10138 -94.30122 34943 ft 535 kts 94°
2026-05-08 00:55 39.09811 -94.20560 34944 ft 536 kts 94°
2026-05-08 00:55 39.09407 -94.11024 34937 ft 535 kts 99°
2026-05-08 00:56 39.08055 -94.01604 34957 ft 532 kts 107°
2026-05-08 00:56 39.06381 -93.92324 34962 ft 533 kts 107°
2026-05-08 00:57 39.04772 -93.83035 34948 ft 534 kts 106°
2026-05-08 00:57 39.03237 -93.73650 34964 ft 536 kts 105°
2026-05-08 00:58 39.01722 -93.64234 34966 ft 537 kts 105°
2026-05-08 00:58 39.00201 -93.54853 34965 ft 539 kts 105°
2026-05-08 00:59 38.98653 -93.45401 34970 ft 539 kts 105°
2026-05-08 00:59 38.97101 -93.35989 34974 ft 540 kts 105°
2026-05-08 01:00 38.95533 -93.26534 34971 ft 540 kts 106°
2026-05-08 01:00 38.94750 -93.21841 34546 ft 546 kts 106°
2026-05-08 01:00 38.93953 -93.17070 34002 ft 545 kts 106°
2026-05-08 01:00 38.93159 -93.12319 33506 ft 542 kts 106°
2026-05-08 01:01 38.92368 -93.07595 33059 ft 538 kts 105°
2026-05-08 01:01 38.91581 -93.02906 32614 ft 533 kts 105°
2026-05-08 01:01 38.90799 -92.98262 32192 ft 529 kts 105°
2026-05-08 01:01 38.90032 -92.93723 31797 ft 525 kts 105°
2026-05-08 01:02 38.89258 -92.89156 31384 ft 521 kts 105°
2026-05-08 01:02 38.88488 -92.84625 30975 ft 517 kts 105°
2026-05-08 01:02 38.87720 -92.80118 30566 ft 513 kts 104°
2026-05-08 01:02 38.86957 -92.75652 30165 ft 510 kts 104°
2026-05-08 01:03 38.86198 -92.71224 29708 ft 506 kts 104°
2026-05-08 01:03 38.85445 -92.66835 29250 ft 501 kts 104°
2026-05-08 01:03 38.84698 -92.62491 28836 ft 496 kts 104°
2026-05-08 01:03 38.83964 -92.58234 28428 ft 492 kts 104°
2026-05-08 01:04 38.83227 -92.53965 28013 ft 488 kts 104°
2026-05-08 01:04 38.82492 -92.49725 27598 ft 484 kts 104°
2026-05-08 01:04 38.81758 -92.45502 27203 ft 486 kts 104°
2026-05-08 01:04 38.81015 -92.41233 26802 ft 490 kts 104°
2026-05-08 01:05 38.80277 -92.37005 26388 ft 491 kts 103°
2026-05-08 01:05 38.79532 -92.32745 25968 ft 488 kts 103°
2026-05-08 01:05 38.78791 -92.28512 25573 ft 484 kts 103°
2026-05-08 01:05 38.78055 -92.24316 25151 ft 481 kts 103°
2026-05-08 01:06 38.77320 -92.20135 24738 ft 477 kts 103°
2026-05-08 01:06 38.76595 -92.16027 24336 ft 474 kts 103°
2026-05-08 01:06 38.75870 -92.11926 23926 ft 471 kts 103°
2026-05-08 01:06 38.75148 -92.07847 23504 ft 467 kts 103°
2026-05-08 01:07 38.74430 -92.03799 23034 ft 463 kts 102°
2026-05-08 01:07 38.73717 -91.99787 22599 ft 458 kts 102°
2026-05-08 01:07 38.73011 -91.95824 22171 ft 454 kts 102°
2026-05-08 01:07 38.72324 -91.91954 21889 ft 446 kts 102°
2026-05-08 01:08 38.71643 -91.88097 21632 ft 441 kts 102°
2026-05-08 01:08 38.70963 -91.84248 21374 ft 441 kts 102°
2026-05-08 01:08 38.70292 -91.80452 21122 ft 444 kts 102°
2026-05-08 01:08 38.69606 -91.76591 20753 ft 443 kts 102°
2026-05-08 01:09 38.69059 -91.72729 20343 ft 439 kts 92°
2026-05-08 01:09 38.69015 -91.68849 19989 ft 432 kts 86°
2026-05-08 01:09 38.69101 -91.65013 19605 ft 430 kts 85°
2026-05-08 01:09 38.69195 -91.61185 19202 ft 429 kts 85°
2026-05-08 01:10 38.69260 -91.57418 18787 ft 426 kts 86°
2026-05-08 01:10 38.69298 -91.53626 18383 ft 423 kts 86°
2026-05-08 01:10 38.69317 -91.49866 17946 ft 421 kts 86°
2026-05-08 01:10 38.69330 -91.46124 17520 ft 417 kts 86°
2026-05-08 01:11 38.69341 -91.42421 17107 ft 413 kts 86°
2026-05-08 01:11 38.69352 -91.38811 16755 ft 408 kts 86°
2026-05-08 01:11 38.69365 -91.35199 16379 ft 403 kts 86°
2026-05-08 01:11 38.69378 -91.31622 16003 ft 399 kts 86°
2026-05-08 01:12 38.69391 -91.28076 15627 ft 395 kts 86°
2026-05-08 01:12 38.69401 -91.24606 15253 ft 392 kts 86°
2026-05-08 01:12 38.69411 -91.21119 14886 ft 389 kts 86°
2026-05-08 01:12 38.69456 -91.17677 14517 ft 385 kts 84°
2026-05-08 01:13 38.69557 -91.14254 14167 ft 382 kts 84°
2026-05-08 01:13 38.69659 -91.10904 13777 ft 380 kts 84°
2026-05-08 01:13 38.69756 -91.07539 13366 ft 377 kts 84°
2026-05-08 01:13 38.69841 -91.04190 12984 ft 374 kts 84°
2026-05-08 01:14 38.69922 -91.00881 12601 ft 370 kts 84°
2026-05-08 01:14 38.70001 -90.97598 12237 ft 366 kts 85°
2026-05-08 01:14 38.70077 -90.94355 11874 ft 363 kts 85°
2026-05-08 01:14 38.70153 -90.91136 11525 ft 359 kts 85°
2026-05-08 01:15 38.70226 -90.87989 11181 ft 356 kts 85°
2026-05-08 01:15 38.70299 -90.84836 10836 ft 347 kts 85°
2026-05-08 01:15 38.70369 -90.81783 10495 ft 338 kts 85°
2026-05-08 01:15 38.70436 -90.78819 10292 ft 326 kts 85°
2026-05-08 01:16 38.70498 -90.76001 10152 ft 313 kts 85°
2026-05-08 01:16 38.70558 -90.73256 10029 ft 304 kts 85°
2026-05-08 01:16 38.70637 -90.70572 9792 ft 300 kts 83°
2026-05-08 01:16 38.70756 -90.67915 9515 ft 298 kts 83°
2026-05-08 01:17 38.70882 -90.65278 9231 ft 295 kts 83°
2026-05-08 01:17 38.71005 -90.62646 8884 ft 296 kts 84°
2026-05-08 01:17 38.71121 -90.60054 8600 ft 294 kts 84°
2026-05-08 01:17 38.71236 -90.57442 8317 ft 292 kts 84°
2026-05-08 01:18 38.71348 -90.54859 8108 ft 288 kts 85°
2026-05-08 01:18 38.71211 -90.52373 7913 ft 281 kts 109°
2026-05-08 01:18 38.70340 -90.50177 7710 ft 272 kts 123°
2026-05-08 01:18 38.69335 -90.48172 7491 ft 261 kts 124°
2026-05-08 01:19 38.68364 -90.46241 7259 ft 254 kts 124°
2026-05-08 01:19 38.67428 -90.44368 7013 ft 252 kts 125°
2026-05-08 01:19 38.66482 -90.42469 6678 ft 254 kts 125°
2026-05-08 01:19 38.65536 -90.40558 6362 ft 254 kts 125°
2026-05-08 01:20 38.64594 -90.38650 6024 ft 251 kts 125°
2026-05-08 01:20 38.63662 -90.36764 5690 ft 247 kts 126°
2026-05-08 01:20 38.62751 -90.34919 5362 ft 243 kts 126°
2026-05-08 01:20 38.61870 -90.33135 5069 ft 238 kts 126°
2026-05-08 01:21 38.61077 -90.31288 4776 ft 236 kts 112°
2026-05-08 01:21 38.60834 -90.29226 4500 ft 236 kts 88°
2026-05-08 01:21 38.61230 -90.27203 4227 ft 236 kts 64°
2026-05-08 01:21 38.62183 -90.25510 3972 ft 236 kts 41°
2026-05-08 01:22 38.63550 -90.24352 3708 ft 234 kts 21°
2026-05-08 01:22 38.65089 -90.23861 3424 ft 224 kts 358°
2026-05-08 01:22 38.66583 -90.24134 3166 ft 211 kts 335°
2026-05-08 01:22 38.67800 -90.25001 2929 ft 191 kts 315°
2026-05-08 01:23 38.68689 -90.26160 2712 ft 179 kts 303°
2026-05-08 01:23 38.69342 -90.27448 2499 ft 165 kts 297°
2026-05-08 01:23 38.69939 -90.28667 2342 ft 159 kts 296°
2026-05-08 01:23 38.70527 -90.29872 2142 ft 157 kts 297°
2026-05-08 01:24 38.71086 -90.31012 1926 ft 146 kts 297°
2026-05-08 01:24 38.71620 -90.32101 1727 ft 143 kts 297°
2026-05-08 01:24 38.72150 -90.33194 1567 ft 142 kts 297°
2026-05-08 01:24 38.72666 -90.34256 1368 ft 140 kts 297°
2026-05-08 01:25 38.73176 -90.35298 1153 ft 138 kts 299°
2026-05-08 01:25 38.73686 -90.36330 939 ft 136 kts 300°
2026-05-08 01:25 38.74204 -90.37367 736 ft 140 kts 300°
2026-05-08 01:25 38.74731 -90.38425 568 ft 140 kts 300°
2026-05-08 01:26 38.75205 -90.39382 537 ft 112 kts 301°
2026-05-08 01:26 38.75538 -90.40056 559 ft 69 kts 302°
2026-05-08 01:26 38.75693 -90.40364 555 ft 35 kts 307°
2026-05-08 01:26 38.75831 -90.40520 563 ft 10 kts 326°
2026-05-08 01:27 38.75885 -90.40514 566 ft 10 kts 85°
2026-05-08 01:27 38.75842 -90.40411 560 ft 17 kts 121°
2026-05-08 01:27 38.75768 -90.40261 557 ft 22 kts 123°
2026-05-08 01:27 38.75682 -90.40084 555 ft 24 kts 122°
2026-05-08 01:28 38.75598 -90.39911 555 ft 23 kts 125°
2026-05-08 01:28 38.75514 -90.39743 553 ft 22 kts 122°
2026-05-08 01:28 38.75433 -90.39580 547 ft 21 kts 122°
2026-05-08 01:28 38.75355 -90.39422 541 ft 22 kts 122°
2026-05-08 01:29 38.75274 -90.39261 539 ft 21 kts 122°
2026-05-08 01:29 38.75196 -90.39102 535 ft 21 kts 123°
2026-05-08 01:29 38.75147 -90.39000 536 ft 20 kts 121°
2026-05-08 01:29 38.75075 -90.38850 535 ft 20 kts 122°
2026-05-08 01:30 38.75002 -90.38706 535 ft 19 kts 122°
2026-05-08 01:30 38.74932 -90.38564 532 ft 19 kts 123°
2026-05-08 01:30 38.74862 -90.38420 530 ft 19 kts 122°
2026-05-08 01:30 38.74824 -90.38272 527 ft 18 kts 78°
2026-05-08 01:31 38.74803 -90.38121 525 ft 18 kts 117°
2026-05-08 01:31 38.74752 -90.37973 526 ft 18 kts 112°
2026-05-08 01:31 38.74704 -90.37829 528 ft 17 kts 115°
2026-05-08 01:31 38.74721 -90.37688 533 ft 17 kts 63°
2026-05-08 01:32 38.74781 -90.37540 534 ft 20 kts 62°
2026-05-08 01:32 38.74844 -90.37384 536 ft 20 kts 63°
2026-05-08 01:32 38.74838 -90.37225 536 ft 19 kts 122°
2026-05-08 01:32 38.74768 -90.37084 537 ft 18 kts 122°
2026-05-08 01:33 38.74701 -90.36948 536 ft 18 kts 122°
2026-05-08 01:33 38.74637 -90.36816 535 ft 17 kts 119°
2026-05-08 01:33 38.74580 -90.36696 536 ft 12 kts 123°
2026-05-08 01:33 38.74529 -90.36616 536 ft 12 kts 158°
2026-05-08 01:34 38.74463 -90.36656 539 ft 11 kts 244°
2026-05-08 01:34 38.74448 -90.36714 541 ft 0 kts 253°